Time,TemperatureF,DewpointF,PressureIn,WindDirection,WindDirectionDegrees,WindSpeedMPH,WindSpeedGustMPH,Humidity,HourlyPrecipIn,Conditions,Clouds,dailyrainin,SoftwareType,DateUTC
2013-11-21 00:05:00,46.4,41.2,31.68,ENE,63,2.0,4.0,82,0.00,,,0.00,Wunderground v.1.15,2013-11-21 05:05:00,
2013-11-21 00:10:00,46.3,41.1,31.68,NE,56,1.0,3.0,82,0.00,,,0.00,Wunderground v.1.15,2013-11-21 05:10:00,
2013-11-21 00:15:00,46.1,41.2,31.68,NNE,30,1.0,3.0,83,0.00,,,0.00,Wunderground v.1.15,2013-11-21 05:15:00,
2013-11-21 00:20:00,46.0,41.1,31.68,NNE,30,1.0,1.0,83,0.00,,,0.00,Wunderground v.1.15,2013-11-21 05:20:00,
2013-11-21 00:25:00,45.8,40.9,31.68,NNE,30,0.0,1.0,83,0.00,,,0.00,Wunderground v.1.15,2013-11-21 05:25:00,
2013-11-21 00:35:00,45.3,41.1,31.68,NNE,30,0.0,0.0,85,0.00,,,0.00,Wunderground v.1.15,2013-11-21 05:35:00,
2013-11-21 00:40:00,45.1,40.9,31.68,NNE,30,0.0,1.0,85,0.00,,,0.00,Wunderground v.1.15,2013-11-21 05:40:00,
2013-11-21 00:45:00,45.1,40.9,31.68,NNE,30,1.0,1.0,85,0.00,,,0.00,Wunderground v.1.15,2013-11-21 05:45:00,
2013-11-21 00:50:00,45.1,41.2,31.68,NNE,30,1.0,1.0,86,0.00,,,0.00,Wunderground v.1.15,2013-11-21 05:50:00,
2013-11-21 00:55:00,45.2,41.3,31.68,NNE,30,0.0,1.0,86,0.00,,,0.00,Wunderground v.1.15,2013-11-21 05:55:00,
2013-11-21 01:00:00,45.4,41.5,31.68,NNE,28,0.0,0.0,86,0.00,,,0.00,Wunderground v.1.15,2013-11-21 06:00:00,
2013-11-21 01:05:00,45.6,41.7,31.68,NNE,26,1.0,1.0,86,0.00,,,0.00,Wunderground v.1.15,2013-11-21 06:05:00,
2013-11-21 01:10:00,45.8,41.9,31.68,NNE,24,1.0,3.0,86,0.00,,,0.00,Wunderground v.1.15,2013-11-21 06:10:00,
2013-11-21 01:15:00,46.0,42.0,31.68,NNE,26,1.0,3.0,86,0.00,,,0.00,Wunderground v.1.15,2013-11-21 06:15:00,
2013-11-21 01:20:00,46.2,41.9,31.68,NNE,15,2.0,3.0,85,0.00,,,0.00,Wunderground v.1.15,2013-11-21 06:20:00,
2013-11-21 01:25:00,46.3,42.0,31.68,NNE,28,1.0,3.0,85,0.00,,,0.00,Wunderground v.1.15,2013-11-21 06:25:00,
2013-11-21 01:30:00,46.5,42.2,31.68,NNE,30,2.0,3.0,85,0.00,,,0.00,Wunderground v.1.15,2013-11-21 06:30:00,
2013-11-21 01:40:00,46.7,42.1,31.68,NNE,26,3.0,3.0,84,0.00,,,0.00,Wunderground v.1.15,2013-11-21 06:40:00,
2013-11-21 01:45:00,46.8,42.2,31.68,NE,35,3.0,4.0,84,0.00,,,0.00,Wunderground v.1.15,2013-11-21 06:45:00,
2013-11-21 01:50:00,46.8,42.2,31.68,NNE,25,3.0,7.0,84,0.00,,,0.00,Wunderground v.1.15,2013-11-21 06:50:00,
2013-11-21 01:55:00,46.9,42.3,31.68,NE,38,4.0,7.0,84,0.00,,,0.00,Wunderground v.1.15,2013-11-21 06:55:00,
2013-11-21 02:00:00,46.9,42.3,31.68,NE,41,5.0,5.0,84,0.00,,,0.00,Wunderground v.1.15,2013-11-21 07:00:00,
2013-11-21 02:05:00,47.0,42.4,31.68,NE,48,6.0,7.0,84,0.00,,,0.00,Wunderground v.1.15,2013-11-21 07:05:00,
2013-11-21 02:10:00,47.0,42.1,31.68,NNE,20,6.0,8.0,83,0.00,,,0.00,Wunderground v.1.15,2013-11-21 07:10:00,
2013-11-21 02:15:00,47.1,42.2,31.68,ENE,72,6.0,11.0,83,0.00,,,0.00,Wunderground v.1.15,2013-11-21 07:15:00,
2013-11-21 02:20:00,47.1,42.2,31.68,NE,54,7.0,7.0,83,0.00,,,0.00,Wunderground v.1.15,2013-11-21 07:20:00,
2013-11-21 02:25:00,47.2,42.3,31.68,NE,37,6.0,7.0,83,0.00,,,0.00,Wunderground v.1.15,2013-11-21 07:25:00,
2013-11-21 02:30:00,47.2,42.3,31.68,NNE,26,5.0,5.0,83,0.00,,,0.00,Wunderground v.1.15,2013-11-21 07:30:00,
2013-11-21 02:35:00,47.2,42.3,31.68,NNE,24,5.0,6.0,83,0.00,,,0.00,Wunderground v.1.15,2013-11-21 07:35:00,
2013-11-21 02:40:00,47.2,42.3,31.68,NE,36,3.0,6.0,83,0.00,,,0.00,Wunderground v.1.15,2013-11-21 07:40:00,
2013-11-21 02:45:00,47.3,42.4,31.68,NNE,24,3.0,7.0,83,0.00,,,0.00,Wunderground v.1.15,2013-11-21 07:45:00,
2013-11-21 02:50:00,47.3,42.4,31.68,NE,44,5.0,5.0,83,0.00,,,0.00,Wunderground v.1.15,2013-11-21 07:50:00,
2013-11-21 02:55:00,47.4,42.5,31.68,NNE,22,4.0,5.0,83,0.00,,,0.00,Wunderground v.1.15,2013-11-21 07:55:00,
2013-11-21 03:00:00,47.4,42.5,31.68,NE,45,3.0,6.0,83,0.00,,,0.00,Wunderground v.1.15,2013-11-21 08:00:00,
2013-11-21 03:05:00,47.4,42.5,31.68,NNE,19,4.0,6.0,83,0.00,,,0.00,Wunderground v.1.15,2013-11-21 08:05:00,
2013-11-21 03:10:00,47.2,42.3,31.68,NNE,27,5.0,5.0,83,0.00,,,0.00,Wunderground v.1.15,2013-11-21 08:10:00,
2013-11-21 03:15:00,47.2,42.3,31.68,NE,38,4.0,5.0,83,0.00,,,0.00,Wunderground v.1.15,2013-11-21 08:15:00,
2013-11-21 03:20:00,47.1,42.2,31.68,NE,39,1.0,1.0,83,0.00,,,0.00,Wunderground v.1.15,2013-11-21 08:20:00,
2013-11-21 03:25:00,47.0,42.4,31.68,NNE,26,0.0,1.0,84,0.00,,,0.00,Wunderground v.1.15,2013-11-21 08:25:00,
2013-11-21 03:30:00,46.9,42.3,31.68,NNE,13,1.0,1.0,84,0.00,,,0.00,Wunderground v.1.15,2013-11-21 08:30:00,
2013-11-21 03:35:00,46.7,42.1,31.68,NNE,15,1.0,1.0,84,0.00,,,0.00,Wunderground v.1.15,2013-11-21 08:35:00,
2013-11-21 03:40:00,46.6,42.0,31.68,NNE,15,1.0,1.0,84,0.00,,,0.00,Wunderground v.1.15,2013-11-21 08:40:00,
2013-11-21 03:45:00,46.5,42.2,31.68,North,10,1.0,1.0,85,0.00,,,0.00,Wunderground v.1.15,2013-11-21 08:45:00,
2013-11-21 03:50:00,46.4,42.1,31.68,North,10,0.0,1.0,85,0.00,,,0.00,Wunderground v.1.15,2013-11-21 08:50:00,
2013-11-21 03:55:00,46.4,42.1,31.68,North,11,0.0,1.0,85,0.00,,,0.00,Wunderground v.1.15,2013-11-21 08:55:00,
2013-11-21 04:00:00,46.4,42.1,31.68,NNE,13,1.0,1.0,85,0.00,,,0.00,Wunderground v.1.15,2013-11-21 09:00:00,
2013-11-21 04:05:00,46.5,42.5,31.68,NNE,22,1.0,3.0,86,0.00,,,0.00,Wunderground v.1.15,2013-11-21 09:05:00,
2013-11-21 04:10:00,46.5,42.2,31.68,NNE,15,2.0,2.0,85,0.00,,,0.00,Wunderground v.1.15,2013-11-21 09:10:00,
2013-11-21 04:15:00,46.5,42.2,31.68,NNE,17,1.0,2.0,85,0.00,,,0.00,Wunderground v.1.15,2013-11-21 09:15:00,
2013-11-21 04:20:00,46.6,42.3,31.11,NNE,18,0.0,0.0,85,0.00,,,0.00,Wunderground v.1.15,2013-11-21 09:20:00,
2013-11-21 04:25:00,46.7,42.4,31.11,NE,36,1.0,6.0,85,0.00,,,0.00,Wunderground v.1.15,2013-11-21 09:25:00,
2013-11-21 04:30:00,46.7,42.4,31.11,NNE,26,1.0,2.0,85,0.00,,,0.00,Wunderground v.1.15,2013-11-21 09:30:00,
2013-11-21 04:35:00,46.8,42.5,31.11,NE,38,1.0,2.0,85,0.00,,,0.00,Wunderground v.1.15,2013-11-21 09:35:00,
2013-11-21 04:40:00,46.9,42.6,31.11,NE,35,1.0,1.0,85,0.00,,,0.00,Wunderground v.1.15,2013-11-21 09:40:00,
2013-11-21 04:45:00,47.0,42.7,31.11,NNE,26,1.0,3.0,85,0.00,,,0.00,Wunderground v.1.15,2013-11-21 09:45:00,
2013-11-21 04:55:00,47.2,42.6,31.11,NE,36,4.0,4.0,84,0.00,,,0.00,Wunderground v.1.15,2013-11-21 09:55:00,
2013-11-21 05:00:00,47.2,42.6,31.11,NNE,17,5.0,6.0,84,0.00,,,0.00,Wunderground v.1.15,2013-11-21 10:00:00,
2013-11-21 05:05:00,47.2,42.6,31.11,ENE,59,6.0,6.0,84,0.00,,,0.00,Wunderground v.1.15,2013-11-21 10:05:00,
2013-11-21 05:10:00,47.2,42.6,31.11,NNE,26,5.0,9.0,84,0.00,,,0.00,Wunderground v.1.15,2013-11-21 10:10:00,
2013-11-21 05:15:00,47.2,42.6,31.11,North,5,5.0,9.0,84,0.00,,,0.00,Wunderground v.1.15,2013-11-21 10:15:00,
2013-11-21 05:25:00,47.3,42.7,31.11,NE,46,5.0,6.0,84,0.00,,,0.00,Wunderground v.1.15,2013-11-21 10:25:00,
2013-11-21 05:35:00,47.4,42.8,31.11,NNE,21,6.0,11.0,84,0.00,,,0.00,Wunderground v.1.15,2013-11-21 10:35:00,
2013-11-21 05:40:00,47.3,42.7,31.11,NNW,333,5.0,5.0,84,0.00,,,0.00,Wunderground v.1.15,2013-11-21 10:40:00,
2013-11-21 05:45:00,47.2,42.6,31.11,NE,34,3.0,5.0,84,0.00,,,0.00,Wunderground v.1.15,2013-11-21 10:45:00,
2013-11-21 05:50:00,47.2,42.6,31.11,NNE,29,2.0,2.0,84,0.00,,,0.00,Wunderground v.1.15,2013-11-21 10:50:00,
2013-11-21 06:00:00,47.4,42.8,31.11,NE,34,3.0,6.0,84,0.00,,,0.00,Wunderground v.1.15,2013-11-21 11:00:00,
2013-11-21 06:05:00,47.5,42.9,31.11,NE,36,3.0,6.0,84,0.00,,,0.00,Wunderground v.1.15,2013-11-21 11:05:00,
2013-11-21 06:15:00,47.6,43.0,31.11,NE,38,4.0,8.0,84,0.00,,,0.00,Wunderground v.1.15,2013-11-21 11:15:00,
2013-11-21 06:20:00,47.6,43.0,31.11,NNE,24,4.0,4.0,84,0.00,,,0.00,Wunderground v.1.15,2013-11-21 11:20:00,
2013-11-21 06:25:00,47.6,43.0,31.11,NNE,31,3.0,4.0,84,0.00,,,0.00,Wunderground v.1.15,2013-11-21 11:25:00,
2013-11-21 06:30:00,47.6,43.0,31.11,NNE,22,3.0,3.0,84,0.00,,,0.00,Wunderground v.1.15,2013-11-21 11:30:00,
2013-11-21 06:40:00,47.3,42.7,31.11,NNE,21,3.0,3.0,84,0.00,,,0.00,Wunderground v.1.15,2013-11-21 11:40:00,
2013-11-21 06:45:00,47.2,42.9,31.11,NNE,33,1.0,5.0,85,0.00,,,0.00,Wunderground v.1.15,2013-11-21 11:45:00,
2013-11-21 06:50:00,47.2,42.9,31.11,North,11,2.0,2.0,85,0.00,,,0.00,Wunderground v.1.15,2013-11-21 11:50:00,
2013-11-21 06:55:00,47.2,42.9,31.11,NNE,22,1.0,2.0,85,0.00,,,0.00,Wunderground v.1.15,2013-11-21 11:55:00,
2013-11-21 07:00:00,47.3,43.0,31.11,NNE,29,1.0,1.0,85,0.00,,,0.00,Wunderground v.1.15,2013-11-21 12:00:00,
2013-11-21 07:05:00,47.3,43.0,31.11,NNE,32,3.0,3.0,85,0.00,,,0.00,Wunderground v.1.15,2013-11-21 12:05:00,
2013-11-21 07:10:00,47.4,43.1,31.11,NE,37,3.0,7.0,85,0.00,,,0.00,Wunderground v.1.15,2013-11-21 12:10:00,
2013-11-21 07:15:00,47.4,43.1,31.11,NNE,28,3.0,7.0,85,0.00,,,0.00,Wunderground v.1.15,2013-11-21 12:15:00,
2013-11-21 07:20:00,47.5,43.2,31.11,NNE,21,3.0,3.0,85,0.00,,,0.00,Wunderground v.1.15,2013-11-21 12:20:00,
2013-11-21 07:25:00,47.5,43.2,31.11,NNE,24,2.0,3.0,85,0.00,,,0.00,Wunderground v.1.15,2013-11-21 12:25:00,
2013-11-21 07:30:00,47.6,43.3,31.11,NE,34,2.0,3.0,85,0.00,,,0.00,Wunderground v.1.15,2013-11-21 12:30:00,
2013-11-21 07:35:00,47.7,43.4,31.11,NNE,29,3.0,4.0,85,0.00,,,0.00,Wunderground v.1.15,2013-11-21 12:35:00,
2013-11-21 07:40:00,47.8,43.5,31.11,NE,38,3.0,3.0,85,0.00,,,0.00,Wunderground v.1.15,2013-11-21 12:40:00,
2013-11-21 07:45:00,47.8,43.2,31.11,NNE,30,3.0,5.0,84,0.00,,,0.00,Wunderground v.1.15,2013-11-21 12:45:00,
2013-11-21 07:50:00,47.9,43.6,31.11,NNE,24,3.0,7.0,85,0.00,,,0.00,Wunderground v.1.15,2013-11-21 12:50:00,
2013-11-21 07:55:00,48.1,43.8,31.11,NNE,29,4.0,7.0,85,0.00,,,0.00,Wunderground v.1.15,2013-11-21 12:55:00,
2013-11-21 08:00:00,48.1,43.5,31.11,NE,39,3.0,6.0,84,0.00,,,0.00,Wunderground v.1.15,2013-11-21 13:00:00,
2013-11-21 08:05:00,48.3,43.7,31.11,NNE,14,3.0,6.0,84,0.00,,,0.00,Wunderground v.1.15,2013-11-21 13:05:00,
2013-11-21 08:10:00,48.4,43.8,31.11,NNE,29,3.0,4.0,84,0.00,,,0.00,Wunderground v.1.15,2013-11-21 13:10:00,
2013-11-21 08:15:00,48.4,43.8,31.11,NNE,30,3.0,4.0,84,0.00,,,0.00,Wunderground v.1.15,2013-11-21 13:15:00,
2013-11-21 08:25:00,48.6,44.0,31.11,NNE,27,3.0,5.0,84,0.00,,,0.00,Wunderground v.1.15,2013-11-21 13:25:00,
2013-11-21 08:30:00,48.9,44.3,31.11,NE,48,3.0,5.0,84,0.00,,,0.00,Wunderground v.1.15,2013-11-21 13:30:00,
2013-11-21 08:35:00,49.4,44.8,31.11,NE,34,4.0,5.0,84,0.00,,,0.00,Wunderground v.1.15,2013-11-21 13:35:00,
2013-11-21 08:40:00,49.9,44.6,31.11,NE,36,6.0,6.0,82,0.00,,,0.00,Wunderground v.1.15,2013-11-21 13:40:00,
2013-11-21 08:45:00,50.4,45.1,31.11,NNE,22,6.0,6.0,82,0.00,,,0.00,Wunderground v.1.15,2013-11-21 13:45:00,
2013-11-21 08:50:00,50.8,45.2,31.11,NNE,32,6.0,6.0,81,0.00,,,0.00,Wunderground v.1.15,2013-11-21 13:50:00,
2013-11-21 08:55:00,51.4,45.4,31.11,NNE,28,6.0,13.0,80,0.00,,,0.00,Wunderground v.1.15,2013-11-21 13:55:00,
2013-11-21 09:05:00,52.7,46.0,31.11,NE,54,5.0,8.0,78,0.00,,,0.00,Wunderground v.1.15,2013-11-21 14:05:00,
2013-11-21 09:10:00,53.2,46.2,31.11,East,82,6.0,6.0,77,0.00,,,0.00,Wunderground v.1.15,2013-11-21 14:10:00,
2013-11-21 09:20:00,54.1,46.3,31.11,NNE,17,4.0,4.0,75,0.00,,,0.00,Wunderground v.1.15,2013-11-21 14:20:00,
2013-11-21 09:25:00,54.2,47.1,31.11,NE,41,4.0,4.0,77,0.00,,,0.00,Wunderground v.1.15,2013-11-21 14:25:00,
2013-11-21 09:30:00,55.0,47.2,31.11,NNE,25,4.0,10.0,75,0.00,,,0.00,Wunderground v.1.15,2013-11-21 14:30:00,
2013-11-21 09:35:00,55.2,47.1,31.11,ENE,68,5.0,10.0,74,0.00,,,0.00,Wunderground v.1.15,2013-11-21 14:35:00,
2013-11-21 09:40:00,55.0,47.2,31.11,NE,39,5.0,5.0,75,0.00,,,0.00,Wunderground v.1.15,2013-11-21 14:40:00,
2013-11-21 09:45:00,55.1,47.3,31.11,NE,38,6.0,10.0,75,0.00,,,0.00,Wunderground v.1.15,2013-11-21 14:45:00,
2013-11-21 09:50:00,55.0,47.2,31.11,NNE,12,7.0,7.0,75,0.00,,,0.00,Wunderground v.1.15,2013-11-21 14:50:00,
2013-11-21 09:55:00,55.5,47.7,31.11,NE,42,6.0,7.0,75,0.00,,,0.00,Wunderground v.1.15,2013-11-21 14:55:00,
2013-11-21 10:00:00,56.2,48.0,31.11,NNE,15,5.0,5.0,74,0.00,,,0.00,Wunderground v.1.15,2013-11-21 15:00:00,
2013-11-21 10:05:00,56.6,48.4,31.11,NE,40,5.0,5.0,74,0.00,,,0.00,Wunderground v.1.15,2013-11-21 15:05:00,
2013-11-21 10:10:00,57.5,48.5,31.11,NNE,28,5.0,6.0,72,0.00,,,0.00,Wunderground v.1.15,2013-11-21 15:10:00,
2013-11-21 10:15:00,58.0,48.6,31.11,NE,38,5.0,6.0,71,0.00,,,0.00,Wunderground v.1.15,2013-11-21 15:15:00,
2013-11-21 10:20:00,57.6,48.6,31.11,East,80,6.0,6.0,72,0.00,,,0.00,Wunderground v.1.15,2013-11-21 15:20:00,
2013-11-21 10:25:00,57.6,49.0,31.11,NE,44,5.0,6.0,73,0.00,,,0.00,Wunderground v.1.15,2013-11-21 15:25:00,
2013-11-21 10:30:00,57.8,48.8,31.11,NE,43,5.0,5.0,72,0.00,,,0.00,Wunderground v.1.15,2013-11-21 15:30:00,
2013-11-21 10:40:00,57.2,49.7,31.11,ENE,57,4.0,5.0,76,0.00,,,0.00,Wunderground v.1.15,2013-11-21 15:40:00,
2013-11-21 10:45:00,57.5,49.3,31.11,NNE,26,5.0,5.0,74,0.00,,,0.00,Wunderground v.1.15,2013-11-21 15:45:00,
2013-11-21 10:50:00,58.6,49.2,31.11,NNE,29,4.0,4.0,71,0.00,,,0.00,Wunderground v.1.15,2013-11-21 15:50:00,
2013-11-21 10:55:00,59.0,49.6,31.11,NE,44,4.0,9.0,71,0.00,,,0.00,Wunderground v.1.15,2013-11-21 15:55:00,
2013-11-21 11:00:00,59.7,49.5,31.11,North,360,5.0,5.0,69,0.00,,,0.00,Wunderground v.1.15,2013-11-21 16:00:00,
2013-11-21 11:05:00,59.9,49.7,31.11,NNE,18,5.0,5.0,69,0.00,,,0.00,Wunderground v.1.15,2013-11-21 16:05:00,
2013-11-21 11:10:00,60.2,50.0,31.11,NE,44,5.0,5.0,69,0.00,,,0.00,Wunderground v.1.15,2013-11-21 16:10:00,
2013-11-21 11:15:00,60.3,49.3,31.11,NNE,28,5.0,9.0,67,0.00,,,0.00,Wunderground v.1.15,2013-11-21 16:15:00,
2013-11-21 11:20:00,59.5,49.3,31.11,NNE,19,4.0,4.0,69,0.00,,,0.00,Wunderground v.1.15,2013-11-21 16:20:00,
2013-11-21 11:25:00,59.3,49.1,31.11,NNE,28,6.0,8.0,69,0.00,,,0.00,Wunderground v.1.15,2013-11-21 16:25:00,
2013-11-21 11:30:00,60.0,49.8,31.11,NNE,19,6.0,6.0,69,0.00,,,0.00,Wunderground v.1.15,2013-11-21 16:30:00,
2013-11-21 11:35:00,59.9,49.3,31.11,ENE,78,4.0,6.0,68,0.00,,,0.00,Wunderground v.1.15,2013-11-21 16:35:00,
2013-11-21 11:40:00,60.0,50.2,31.11,North,11,3.0,3.0,70,0.00,,,0.00,Wunderground v.1.15,2013-11-21 16:40:00,
2013-11-21 11:45:00,60.5,50.3,31.11,NE,41,3.0,4.0,69,0.00,,,0.00,Wunderground v.1.15,2013-11-21 16:45:00,
2013-11-21 11:50:00,60.8,50.6,31.11,NNE,26,3.0,3.0,69,0.00,,,0.00,Wunderground v.1.15,2013-11-21 16:50:00,
2013-11-21 11:55:00,61.6,51.3,31.11,NNE,30,3.0,5.0,69,0.00,,,0.00,Wunderground v.1.15,2013-11-21 16:55:00,
2013-11-21 12:00:00,61.8,51.1,31.11,East,80,2.0,4.0,68,0.00,,,0.00,Wunderground v.1.15,2013-11-21 17:00:00,
2013-11-21 12:05:00,61.2,51.3,31.11,ENE,71,2.0,4.0,70,0.00,,,0.00,Wunderground v.1.15,2013-11-21 17:05:00,
2013-11-21 12:10:00,61.8,51.5,31.11,NE,52,2.0,2.0,69,0.00,,,0.00,Wunderground v.1.15,2013-11-21 17:10:00,
2013-11-21 12:15:00,61.9,51.6,31.11,NE,52,1.0,3.0,69,0.00,,,0.00,Wunderground v.1.15,2013-11-21 17:15:00,
2013-11-21 12:20:00,62.7,52.0,31.11,ENE,64,2.0,2.0,68,0.00,,,0.00,Wunderground v.1.15,2013-11-21 17:20:00,
2013-11-21 12:25:00,63.0,52.3,31.11,ENE,61,2.0,2.0,68,0.00,,,0.00,Wunderground v.1.15,2013-11-21 17:25:00,
2013-11-21 12:30:00,63.4,52.7,31.11,ENE,67,1.0,1.0,68,0.00,,,0.00,Wunderground v.1.15,2013-11-21 17:30:00,
2013-11-21 12:35:00,63.4,52.2,31.11,NE,40,2.0,2.0,67,0.00,,,0.00,Wunderground v.1.15,2013-11-21 17:35:00,
2013-11-21 12:45:00,63.9,52.7,31.11,ESE,115,2.0,5.0,67,0.00,,,0.00,Wunderground v.1.15,2013-11-21 17:45:00,
2013-11-21 12:55:00,63.2,52.9,31.11,ESE,106,2.0,4.0,69,0.00,,,0.00,Wunderground v.1.15,2013-11-21 17:55:00,
2013-11-21 13:00:00,64.0,52.8,31.11,NNE,27,2.0,5.0,67,0.00,,,0.00,Wunderground v.1.15,2013-11-21 18:00:00,
2013-11-21 13:05:00,64.4,52.8,31.11,East,90,3.0,5.0,66,0.00,,,0.00,Wunderground v.1.15,2013-11-21 18:05:00,
2013-11-21 13:10:00,64.6,53.4,31.11,SE,130,2.0,2.0,67,0.00,,,0.00,Wunderground v.1.15,2013-11-21 18:10:00,
2013-11-21 13:15:00,65.4,53.7,31.11,NE,41,1.0,4.0,66,0.00,,,0.00,Wunderground v.1.15,2013-11-21 18:15:00,
2013-11-21 13:20:00,65.2,53.6,31.11,ESE,105,2.0,3.0,66,0.00,,,0.00,Wunderground v.1.15,2013-11-21 18:20:00,
2013-11-21 13:25:00,65.2,53.6,31.11,NE,55,3.0,3.0,66,0.00,,,0.00,Wunderground v.1.15,2013-11-21 18:25:00,
2013-11-21 13:35:00,66.7,54.1,31.11,NNE,26,2.0,5.0,64,0.00,,,0.00,Wunderground v.1.15,2013-11-21 18:35:00,
2013-11-21 13:40:00,67.6,55.0,31.11,NNE,32,4.0,6.0,64,0.00,,,0.00,Wunderground v.1.15,2013-11-21 18:40:00,
2013-11-21 13:45:00,68.1,54.6,31.11,NNE,19,4.0,6.0,62,0.00,,,0.00,Wunderground v.1.15,2013-11-21 18:45:00,
2013-11-21 13:50:00,68.5,54.5,31.11,NNE,14,4.0,4.0,61,0.00,,,0.00,Wunderground v.1.15,2013-11-21 18:50:00,
2013-11-21 13:55:00,68.7,54.7,31.11,NE,36,4.0,4.0,61,0.00,,,0.00,Wunderground v.1.15,2013-11-21 18:55:00,
2013-11-21 14:00:00,68.6,55.1,31.11,NNE,28,4.0,4.0,62,0.00,,,0.00,Wunderground v.1.15,2013-11-21 19:00:00,
2013-11-21 14:05:00,68.5,54.5,31.11,NE,39,2.0,7.0,61,0.00,,,0.00,Wunderground v.1.15,2013-11-21 19:05:00,
2013-11-21 14:10:00,67.6,54.6,31.11,NE,42,3.0,4.0,63,0.00,,,0.00,Wunderground v.1.15,2013-11-21 19:10:00,
2013-11-21 14:15:00,67.9,54.8,31.11,NNE,28,3.0,4.0,63,0.00,,,0.00,Wunderground v.1.15,2013-11-21 19:15:00,
2013-11-21 14:20:00,67.9,54.4,31.11,NNE,28,2.0,3.0,62,0.00,,,0.00,Wunderground v.1.15,2013-11-21 19:20:00,
2013-11-21 14:25:00,67.6,54.1,31.11,NNE,15,2.0,4.0,62,0.00,,,0.00,Wunderground v.1.15,2013-11-21 19:25:00,
2013-11-21 14:30:00,67.1,54.1,31.11,NNE,28,3.0,3.0,63,0.00,,,0.00,Wunderground v.1.15,2013-11-21 19:30:00,
2013-11-21 14:35:00,66.3,54.2,31.11,NNE,24,3.0,5.0,65,0.00,,,0.00,Wunderground v.1.15,2013-11-21 19:35:00,
2013-11-21 14:40:00,66.6,54.5,31.11,NE,53,3.0,3.0,65,0.00,,,0.00,Wunderground v.1.15,2013-11-21 19:40:00,
2013-11-21 14:45:00,66.7,54.6,31.11,ENE,59,3.0,3.0,65,0.00,,,0.00,Wunderground v.1.15,2013-11-21 19:45:00,
2013-11-21 14:50:00,66.3,54.2,31.11,East,88,3.0,3.0,65,0.00,,,0.00,Wunderground v.1.15,2013-11-21 19:50:00,
2013-11-21 14:55:00,66.3,54.6,31.11,NE,37,3.0,3.0,66,0.00,,,0.00,Wunderground v.1.15,2013-11-21 19:55:00,
2013-11-21 15:00:00,66.3,54.6,31.11,ENE,61,4.0,6.0,66,0.00,,,0.00,Wunderground v.1.15,2013-11-21 20:00:00,
2013-11-21 15:05:00,66.7,54.6,31.11,NE,55,4.0,6.0,65,0.00,,,0.00,Wunderground v.1.15,2013-11-21 20:05:00,
2013-11-21 15:10:00,66.9,55.2,31.11,ENE,67,3.0,5.0,66,0.00,,,0.00,Wunderground v.1.15,2013-11-21 20:10:00,
2013-11-21 15:20:00,66.4,54.7,31.11,ESE,112,3.0,3.0,66,0.00,,,0.00,Wunderground v.1.15,2013-11-21 20:20:00,
2013-11-21 15:25:00,66.0,54.7,31.11,East,96,2.0,5.0,67,0.00,,,0.00,Wunderground v.1.15,2013-11-21 20:25:00,
2013-11-21 15:30:00,66.0,54.7,31.11,ENE,61,2.0,3.0,67,0.00,,,0.00,Wunderground v.1.15,2013-11-21 20:30:00,
2013-11-21 15:35:00,65.9,54.6,31.11,ENE,67,3.0,4.0,67,0.00,,,0.00,Wunderground v.1.15,2013-11-21 20:35:00,
2013-11-21 15:40:00,65.8,54.5,31.11,East,80,3.0,3.0,67,0.00,,,0.00,Wunderground v.1.15,2013-11-21 20:40:00,
2013-11-21 15:45:00,65.8,54.9,31.11,ESE,117,3.0,3.0,68,0.00,,,0.00,Wunderground v.1.15,2013-11-21 20:45:00,
2013-11-21 15:50:00,65.5,54.7,31.11,ESE,114,3.0,3.0,68,0.00,,,0.00,Wunderground v.1.15,2013-11-21 20:50:00,
2013-11-21 15:55:00,65.2,54.8,31.11,SE,126,2.0,3.0,69,0.00,,,0.00,Wunderground v.1.15,2013-11-21 20:55:00,
2013-11-21 16:00:00,65.0,54.6,31.11,ENE,62,2.0,2.0,69,0.00,,,0.00,Wunderground v.1.15,2013-11-21 21:00:00,
2013-11-21 16:05:00,64.9,54.9,31.11,ENE,59,2.0,2.0,70,0.00,,,0.00,Wunderground v.1.15,2013-11-21 21:05:00,
2013-11-21 16:10:00,64.7,54.7,31.11,East,80,1.0,1.0,70,0.00,,,0.00,Wunderground v.1.15,2013-11-21 21:10:00,
2013-11-21 16:15:00,64.6,54.6,31.11,ENE,67,1.0,1.0,70,0.00,,,0.00,Wunderground v.1.15,2013-11-21 21:15:00,
2013-11-21 16:20:00,64.5,54.9,31.11,ESE,103,2.0,4.0,71,0.00,,,0.00,Wunderground v.1.15,2013-11-21 21:20:00,
2013-11-21 16:25:00,64.5,54.9,31.11,East,89,2.0,4.0,71,0.00,,,0.00,Wunderground v.1.15,2013-11-21 21:25:00,
2013-11-21 16:30:00,64.4,54.8,31.11,East,90,1.0,1.0,71,0.00,,,0.00,Wunderground v.1.15,2013-11-21 21:30:00,
2013-11-21 16:35:00,64.3,55.1,31.11,East,84,1.0,1.0,72,0.00,,,0.00,Wunderground v.1.15,2013-11-21 21:35:00,
2013-11-21 16:40:00,64.1,54.9,31.11,East,82,1.0,1.0,72,0.00,,,0.00,Wunderground v.1.15,2013-11-21 21:40:00,
2013-11-21 16:45:00,63.9,55.1,31.11,East,81,0.0,1.0,73,0.00,,,0.00,Wunderground v.1.15,2013-11-21 21:45:00,
2013-11-21 16:50:00,63.8,55.0,31.11,East,79,0.0,0.0,73,0.00,,,0.00,Wunderground v.1.15,2013-11-21 21:50:00,
2013-11-21 16:55:00,63.6,54.8,31.11,East,80,0.0,0.0,73,0.00,,,0.00,Wunderground v.1.15,2013-11-21 21:55:00,
2013-11-21 17:00:00,63.4,54.6,31.11,East,80,0.0,0.0,73,0.00,,,0.00,Wunderground v.1.15,2013-11-21 22:00:00,
2013-11-21 17:05:00,63.0,54.6,31.11,East,80,0.0,0.0,74,0.00,,,0.00,Wunderground v.1.15,2013-11-21 22:05:00,
2013-11-21 17:10:00,62.5,54.5,31.11,East,79,0.0,0.0,75,0.00,,,0.00,Wunderground v.1.15,2013-11-21 22:10:00,
2013-11-21 17:15:00,62.0,54.3,31.11,East,79,0.0,0.0,76,0.00,,,0.00,Wunderground v.1.15,2013-11-21 22:15:00,
2013-11-21 17:20:00,61.4,54.1,31.11,East,80,0.0,0.0,77,0.00,,,0.00,Wunderground v.1.15,2013-11-21 22:20:00,
2013-11-21 17:25:00,60.9,54.0,31.11,East,80,0.0,0.0,78,0.00,,,0.00,Wunderground v.1.15,2013-11-21 22:25:00,
2013-11-21 17:30:00,60.5,54.0,31.11,East,80,0.0,0.0,79,0.00,,,0.00,Wunderground v.1.15,2013-11-21 22:30:00,
2013-11-21 17:35:00,60.1,53.6,31.11,East,80,0.0,0.0,79,0.00,,,0.00,Wunderground v.1.15,2013-11-21 22:35:00,
2013-11-21 17:40:00,59.8,53.6,31.11,East,80,0.0,0.0,80,0.00,,,0.00,Wunderground v.1.15,2013-11-21 22:40:00,
2013-11-21 17:45:00,59.4,53.6,31.11,East,79,0.0,0.0,81,0.00,,,0.00,Wunderground v.1.15,2013-11-21 22:45:00,
2013-11-21 17:50:00,59.0,53.2,31.11,East,80,0.0,0.0,81,0.00,,,0.00,Wunderground v.1.15,2013-11-21 22:50:00,
2013-11-21 17:55:00,59.0,53.2,31.11,East,80,0.0,0.0,81,0.00,,,0.00,Wunderground v.1.15,2013-11-21 22:55:00,
2013-11-21 18:05:00,58.3,53.2,31.11,East,80,0.0,0.0,83,0.00,,,0.00,Wunderground v.1.15,2013-11-21 23:05:00,
2013-11-21 18:10:00,58.0,52.9,31.11,East,79,0.0,0.0,83,0.00,,,0.00,Wunderground v.1.15,2013-11-21 23:10:00,
2013-11-21 18:15:00,57.8,53.0,31.11,East,80,0.0,0.0,84,0.00,,,0.00,Wunderground v.1.15,2013-11-21 23:15:00,
2013-11-21 18:20:00,57.7,53.2,31.11,East,80,0.0,0.0,85,0.00,,,0.00,Wunderground v.1.15,2013-11-21 23:20:00,
2013-11-21 18:25:00,57.6,53.1,31.11,East,80,0.0,0.0,85,0.00,,,0.00,Wunderground v.1.15,2013-11-21 23:25:00,
2013-11-21 18:30:00,57.5,53.0,31.11,East,79,0.0,0.0,85,0.00,,,0.00,Wunderground v.1.15,2013-11-21 23:30:00,
2013-11-21 18:35:00,57.5,53.0,31.11,East,80,0.0,0.0,85,0.00,,,0.00,Wunderground v.1.15,2013-11-21 23:35:00,
2013-11-21 18:40:00,57.4,52.9,31.11,East,80,0.0,0.0,85,0.00,,,0.00,Wunderground v.1.15,2013-11-21 23:40:00,
2013-11-21 18:45:00,57.3,52.8,31.11,East,79,0.0,0.0,85,0.00,,,0.00,Wunderground v.1.15,2013-11-21 23:45:00,
2013-11-21 18:50:00,57.3,53.1,31.11,East,80,0.0,0.0,86,0.00,,,0.00,Wunderground v.1.15,2013-11-21 23:50:00,
2013-11-21 18:55:00,57.3,53.1,31.11,East,80,0.0,0.0,86,0.00,,,0.00,Wunderground v.1.15,2013-11-21 23:55:00,
2013-11-21 19:00:00,57.2,53.0,31.11,East,80,0.0,0.0,86,0.00,,,0.00,Wunderground v.1.15,2013-11-22 00:00:00,
2013-11-21 19:05:00,57.2,53.0,31.11,East,80,0.0,0.0,86,0.00,,,0.00,Wunderground v.1.15,2013-11-22 00:05:00,
2013-11-21 19:10:00,57.2,53.0,31.11,East,80,0.0,0.0,86,0.00,,,0.00,Wunderground v.1.15,2013-11-22 00:10:00,
2013-11-21 19:15:00,57.7,53.5,31.11,East,80,0.0,0.0,86,0.00,,,0.00,Wunderground v.1.15,2013-11-22 00:15:00,
2013-11-21 19:20:00,58.1,53.6,31.11,East,80,0.0,0.0,85,0.00,,,0.00,Wunderground v.1.15,2013-11-22 00:20:00,
2013-11-21 19:25:00,58.5,53.7,31.11,East,80,0.0,0.0,84,0.00,,,0.00,Wunderground v.1.15,2013-11-22 00:25:00,
2013-11-21 19:30:00,58.6,53.5,31.11,East,80,0.0,0.0,83,0.00,,,0.00,Wunderground v.1.15,2013-11-22 00:30:00,
2013-11-21 19:35:00,58.7,53.5,31.11,East,80,0.0,0.0,83,0.00,,,0.00,Wunderground v.1.15,2013-11-22 00:35:00,
2013-11-21 19:40:00,58.7,53.5,31.11,East,80,0.0,0.0,83,0.00,,,0.00,Wunderground v.1.15,2013-11-22 00:40:00,
2013-11-21 19:45:00,58.6,53.5,31.11,East,79,0.0,0.0,83,0.00,,,0.00,Wunderground v.1.15,2013-11-22 00:45:00,
2013-11-21 19:50:00,58.5,53.4,31.11,East,79,0.0,0.0,83,0.00,,,0.00,Wunderground v.1.15,2013-11-22 00:50:00,
2013-11-21 19:55:00,58.3,53.2,31.11,East,79,0.0,0.0,83,0.00,,,0.00,Wunderground v.1.15,2013-11-22 00:55:00,
2013-11-21 20:00:00,58.0,53.2,31.11,East,80,0.0,0.0,84,0.00,,,0.00,Wunderground v.1.15,2013-11-22 01:00:00,
2013-11-21 20:05:00,57.6,52.8,31.11,East,80,0.0,0.0,84,0.00,,,0.00,Wunderground v.1.15,2013-11-22 01:05:00,
2013-11-21 20:10:00,57.3,52.8,31.11,East,79,0.0,0.0,85,0.00,,,0.00,Wunderground v.1.15,2013-11-22 01:10:00,
2013-11-21 20:15:00,57.0,52.5,31.11,East,80,0.0,0.0,85,0.00,,,0.00,Wunderground v.1.15,2013-11-22 01:15:00,
2013-11-21 20:20:00,56.6,52.5,31.11,East,79,0.0,0.0,86,0.00,,,0.00,Wunderground v.1.15,2013-11-22 01:20:00,
2013-11-21 20:25:00,56.2,52.1,31.11,East,80,0.0,0.0,86,0.00,,,0.00,Wunderground v.1.15,2013-11-22 01:25:00,
2013-11-21 20:30:00,55.9,52.1,31.11,East,80,0.0,0.0,87,0.00,,,0.00,Wunderground v.1.15,2013-11-22 01:30:00,
2013-11-21 20:35:00,55.8,52.3,31.11,East,80,0.0,0.0,88,0.00,,,0.00,Wunderground v.1.15,2013-11-22 01:35:00,
2013-11-21 20:40:00,55.7,52.2,31.11,East,80,0.0,0.0,88,0.00,,,0.00,Wunderground v.1.15,2013-11-22 01:40:00,
2013-11-21 20:45:00,55.7,52.2,31.11,East,79,0.0,0.0,88,0.00,,,0.00,Wunderground v.1.15,2013-11-22 01:45:00,
2013-11-21 20:50:00,55.6,52.4,31.11,East,79,0.0,0.0,89,0.00,,,0.00,Wunderground v.1.15,2013-11-22 01:50:00,
2013-11-21 21:00:00,55.4,52.2,31.11,East,79,0.0,0.0,89,0.00,,,0.00,Wunderground v.1.15,2013-11-22 02:00:00,
2013-11-21 21:05:00,55.3,52.1,31.11,East,79,0.0,0.0,89,0.00,,,0.00,Wunderground v.1.15,2013-11-22 02:05:00,
2013-11-21 21:10:00,55.2,52.0,31.11,East,80,0.0,0.0,89,0.00,,,0.00,Wunderground v.1.15,2013-11-22 02:10:00,
2013-11-21 21:15:00,55.2,52.3,31.11,East,80,0.0,0.0,90,0.00,,,0.00,Wunderground v.1.15,2013-11-22 02:15:00,
2013-11-21 21:20:00,55.1,52.2,31.11,East,80,0.0,0.0,90,0.00,,,0.00,Wunderground v.1.15,2013-11-22 02:20:00,
2013-11-21 21:30:00,55.4,52.5,31.11,East,79,0.0,0.0,90,0.00,,,0.00,Wunderground v.1.15,2013-11-22 02:30:00,
2013-11-21 21:35:00,55.5,52.6,31.11,East,80,0.0,0.0,90,0.00,,,0.00,Wunderground v.1.15,2013-11-22 02:35:00,
2013-11-21 21:40:00,55.7,52.8,31.11,East,79,0.0,0.0,90,0.00,,,0.00,Wunderground v.1.15,2013-11-22 02:40:00,
2013-11-21 21:45:00,55.8,52.9,31.11,East,80,0.0,0.0,90,0.00,,,0.00,Wunderground v.1.15,2013-11-22 02:45:00,
2013-11-21 21:50:00,56.0,52.8,31.11,East,79,0.0,0.0,89,0.00,,,0.00,Wunderground v.1.15,2013-11-22 02:50:00,
2013-11-21 22:00:00,56.2,53.0,31.11,East,79,0.0,0.0,89,0.00,,,0.00,Wunderground v.1.15,2013-11-22 03:00:00,
2013-11-21 22:05:00,56.2,53.0,31.11,East,79,0.0,0.0,89,0.00,,,0.00,Wunderground v.1.15,2013-11-22 03:05:00,
2013-11-21 22:10:00,56.3,53.1,31.11,East,80,0.0,0.0,89,0.00,,,0.00,Wunderground v.1.15,2013-11-22 03:10:00,
2013-11-21 22:15:00,56.4,53.2,31.11,East,79,0.0,0.0,89,0.00,,,0.00,Wunderground v.1.15,2013-11-22 03:15:00,
2013-11-21 22:20:00,56.5,53.3,31.11,East,80,0.0,0.0,89,0.00,,,0.00,Wunderground v.1.15,2013-11-22 03:20:00,
2013-11-21 22:30:00,56.6,53.4,31.11,East,80,0.0,0.0,89,0.00,,,0.00,Wunderground v.1.15,2013-11-22 03:30:00,
2013-11-21 22:35:00,56.7,53.5,31.11,East,80,0.0,0.0,89,0.00,,,0.00,Wunderground v.1.15,2013-11-22 03:35:00,
2013-11-21 22:40:00,56.8,53.6,31.11,East,80,0.0,0.0,89,0.00,,,0.00,Wunderground v.1.15,2013-11-22 03:40:00,
2013-11-21 22:45:00,56.9,53.7,31.11,East,80,0.0,0.0,89,0.00,,,0.00,Wunderground v.1.15,2013-11-22 03:45:00,
2013-11-21 22:50:00,57.0,53.8,31.11,East,79,0.0,0.0,89,0.00,,,0.00,Wunderground v.1.15,2013-11-22 03:50:00,
2013-11-21 22:55:00,57.0,53.8,31.11,East,80,0.0,0.0,89,0.00,,,0.00,Wunderground v.1.15,2013-11-22 03:55:00,
2013-11-21 23:05:00,56.9,53.7,31.11,East,80,0.0,0.0,89,0.00,,,0.00,Wunderground v.1.15,2013-11-22 04:05:00,
2013-11-21 23:10:00,56.8,53.6,31.11,East,80,0.0,0.0,89,0.00,,,0.00,Wunderground v.1.15,2013-11-22 04:10:00,
2013-11-21 23:15:00,56.7,53.5,31.11,East,79,0.0,0.0,89,0.00,,,0.00,Wunderground v.1.15,2013-11-22 04:15:00,
2013-11-21 23:20:00,56.6,53.4,31.11,East,79,0.0,0.0,89,0.00,,,0.00,Wunderground v.1.15,2013-11-22 04:20:00,
2013-11-21 23:25:00,56.5,53.6,31.11,East,80,0.0,0.0,90,0.00,,,0.00,Wunderground v.1.15,2013-11-22 04:25:00,
2013-11-21 23:30:00,56.4,53.5,31.11,East,80,0.0,0.0,90,0.00,,,0.00,Wunderground v.1.15,2013-11-22 04:30:00,
2013-11-21 23:35:00,56.3,53.4,31.11,East,80,0.0,0.0,90,0.00,,,0.00,Wunderground v.1.15,2013-11-22 04:35:00,
2013-11-21 23:40:00,56.2,53.3,31.11,East,79,0.0,0.0,90,0.00,,,0.00,Wunderground v.1.15,2013-11-22 04:40:00,
2013-11-21 23:50:00,56.1,53.5,31.11,East,80,0.0,0.0,91,0.00,,,0.00,Wunderground v.1.15,2013-11-22 04:50:00,
2013-11-21 23:55:00,56.0,53.4,31.11,East,80,0.0,0.0,91,0.00,,,0.00,Wunderground v.1.15,2013-11-22 04:55:00,